STARLINK-1522, 46027

Orbit data source: Space-Track

STARLINK-1522, 46027 is a payload satellite owned by SpaceX/Seattle (US) in LEO that was launched on Fri, 07 Aug 2020 UTC via an FALCON 9 launch vehicle from the Air Force Eastern Test Range (AFETR). Payloads include a variety of satellites, spacecraft, and rockets equipped with specific instruments for various scientific and technological missions. These include communications satellites like Starlink; space stations such as the ISS; scientific satellites like the Hubble; Earth observation satellites from companies like Planet Labs, Umbra, and HawkEye 360; GPS; miniature CubeSats for education and research; and military/defense satellites.

Loading next visibility...
STARLINK-1522 details
Identifier
46027, 2020-055A
Orbit
LEO
Last TLE update1 day ago
Origin
Flag of USSpaceX/Seattle (US)
ManufacturerSpaceX/Seattle
MissionOperational Commercial Communications
Bus & MotorSTARLINK, Unknown motor
Mass260 kg wet, ~248 kg dry
Launch date (UTC)
2020-08-07 (4 years ago)
Launch vehicle
FALCON 9
Launch site
Air Force Eastern Test Range (AFETR)
Object type
Payload
Rocket body
Debris
Shape & HBRBox + 1 Pan, 8.86 m
Radar Cross Section13.562 m², Large (>1 m²)

Expand to show TLE details & history

TLE from 1 day ago
0 STARLINK-1522
1 46027U 20055A   25017.89966887 -.00000450  00000-0 -11289-4 0  9993
2 46027  53.0549 193.1707 0001354  95.0673 265.0470 15.06392637246219
Epoch: 2025-01-17T21:35Z
Definitive object data (Epoch: 2025-01-17T21:35:31.39Z)
Latitude-0.00006°
Longitude111.73318°
Altitude548.194 km
Speed7.589 km/s
True Right ascension12h 52m 40s
True Declination0° 00' 00"
Sunlit
Object was in daylight at TLE epoch
Visualization TLE readout
Latitude10.02044°
Longitude-80.7661°
Altitude547.033 km
Speed7.591 km/s
Apparent Right ascension22h 30m 29s
Apparent Declination-52° 57' 13"
Sunlit
Object is in daylight
Visualization observer readout
Local Sidereal Time00:42:36
Azimuth199.328° SSW
Elevation-7.166°
Doppler factor1
Orbital elements
Apogee altitude548.443 km
Perigee altitude546.567 km
Semi-major axis6,925.642 km
Eccentricity0.0001354
Inclination53.0549°
RAAN193.1707°
Arg. of periapsis95.0673°
True anomaly265.03154°
Mean anomaly265.047°
Eccentric anomaly265.03927°
Mean motion3.76576 °/min
BSTAR-0.000011289
Orbital period95.6 mins
Loading maneuver chart data...
Loading historical data...
Loading historical data...
Loading historical data...
Loading historical data...
Loading historical data...
Loading historical data...
Loading historical data...

STARLINK-1522 Visibility forecast

Observer location: undefined°, undefined

Span
Click to sort rows by Start time (UTC) header in descending order
Start Az.
Max El. time (UTC)
Max El. Az.
Max El.
End time (UTC)
End Az.
7 mins2025-01-19 13:33:33.058Z212.297° SW2025-01-19 13:37:33.058Z114.084° SE38.703°2025-01-19 13:40:33.058Z60.188° ENE
5 mins2025-01-19 15:14:33.058Z284.768° WNW2025-01-19 15:16:33.058Z323.043° NNW24.253°2025-01-19 15:19:33.058Z24.566° NE
6 mins2025-01-19 20:16:33.058Z326.207° NNW2025-01-19 20:18:33.058Z24.78° NE39.579°2025-01-19 20:22:33.058Z114.715° SE
4 mins2025-01-19 21:56:33.058Z258.536° W2025-01-19 21:57:33.058Z239.638° WSW18.839°2025-01-19 22:00:33.058Z188.011° SSW
|